K7PMV-13 Weather Reports


time (UTC)temp
C
wind
direction
speed
KPH
gust
KPH
rain 1hr
cm
rain 24hr
cm
rain mn
cm
humidity
%
barometer
mb
20260502130528 18 360 3.2 128.7 0.00 0.00 0.00 45 1008.9
20260502123510 18 360 1.6 16.1 0.00 0.00 0.00 43 1008.3
20260502123007 17 360 0.0 32.2 0.00 0.00 0.00 47 1008.2
20260502122501 16 360 1.6 32.2 0.00 0.00 0.00 49 1008.2
20260502121959 16 360 0.0 16.1 0.00 0.00 0.00 47 1008.2
20260502121455 16 360 0.0 32.2 0.00 0.00 0.00 48 1008.1
20260502120952 16 360 1.6 32.2 0.00 0.00 0.00 48 1008.0
20260502120447 16 360 0.0 0.0 0.00 0.00 0.00 47 1008.1
20260502115442 17 360 0.0 16.1 0.00 0.00 0.00 44 1007.9
20260502114939 17 360 0.0 16.1 0.00 0.00 0.00 44 1007.9
20260502114436 17 360 1.6 16.1 0.00 0.00 0.00 43 1007.8
20260502113934 17 360 0.0 32.2 0.00 0.00 0.00 42 1007.8
20260502113428 17 360 1.6 32.2 0.00 0.00 0.00 42 1007.8
20260502112832 18 360 0.0 32.2 0.00 0.00 0.00 40 1007.8
20260502112329 18 360 0.0 32.2 0.00 0.00 0.00 40 1007.8
20260502111826 18 360 0.0 32.2 0.00 0.00 0.00 39 1007.9
20260502111316 18 360 1.6 32.2 0.00 0.00 0.00 39 1007.9
20260502110813 18 360 1.6 32.2 0.00 0.00 0.00 40 1007.9
20260502110310 18 360 3.2 80.5 0.00 0.00 0.00 39 1007.8
20260502105808 18 360 4.8 80.5 0.00 0.00 0.00 39 1007.9
20260502105259 18 360 0.0 32.2 0.00 0.00 0.00 39 1007.8
20260502104749 18 360 0.0 32.2 0.00 0.00 0.00 39 1007.8
20260502104246 19 360 1.6 32.2 0.00 0.00 0.00 39 1007.8
20260502103743 19 360 1.6 80.5 0.00 0.00 0.00 38 1007.8
20260502103241 19 360 0.0 80.5 0.00 0.00 0.00 38 1007.5
20260502102738 20 360 0.0 16.1 0.00 0.00 0.00 39 1007.5
20260502102235 20 360 0.0 64.4 0.00 0.00 0.00 37 1007.5
20260502101733 21 360 1.6 64.4 0.00 0.00 0.00 33 1007.5
20260502101230 21 360 0.0 48.3 0.00 0.00 0.00 30 1007.4
20260502100727 21 360 0.0 48.3 0.00 0.00 0.00 31 1007.4
20260502100224 20 360 1.6 48.3 0.00 0.00 0.00 33 1007.3
20260502091416 21 360 0.0 32.2 0.00 0.00 0.00 34 1007.1
20260502090914 21 360 0.0 48.3 0.00 0.00 0.00 34 1007.0
20260502090404 21 360 3.2 48.3 0.00 0.00 0.00 34 1007.0
20260502071143 20 360 0.0 0.0 0.00 0.00 0.00 34 1006.8
20260502070641 20 360 0.0 0.0 0.00 0.00 0.00 34 1006.8
20260502070138 20 360 0.0 16.1 0.00 0.00 0.00 34 1006.8
20260502065636 20 360 0.0 16.1 0.00 0.00 0.00 34 1006.8
20260502065133 20 360 0.0 16.1 0.00 0.00 0.00 35 1006.8
20260502064527 20 360 0.0 16.1 0.00 0.00 0.00 35 1006.9
20260502064025 21 360 0.0 16.1 0.00 0.00 0.00 36 1006.9
20260502063523 21 360 0.0 16.1 0.00 0.00 0.00 35 1006.9
20260502063017 21 360 0.0 32.2 0.00 0.00 0.00 35 1006.9
20260502062515 21 360 1.6 32.2 0.00 0.00 0.00 35 1006.9
20260502062012 21 360 0.0 0.0 0.00 0.00 0.00 37 1006.8
20260502061509 21 360 0.0 0.0 0.00 0.00 0.00 36 1006.7
20260502061006 21 360 0.0 0.0 0.00 0.00 0.00 37 1006.6
20260502060504 21 360 0.0 0.0 0.00 0.00 0.00 38 1006.5
20260502060002 21 360 0.0 0.0 0.00 0.00 0.00 37 1006.5
20260502055448 21 360 0.0 0.0 0.00 0.00 0.00 37 1006.5
20260502054943 21 360 0.0 0.0 0.00 0.00 0.00 37 1006.4
20260502054440 21 360 0.0 0.0 0.00 0.00 0.00 36 1006.4
20260502053937 21 360 0.0 0.0 0.00 0.00 0.00 36 1006.4
20260502053431 21 360 0.0 0.0 0.00 0.00 0.00 37 1006.4
20260502052929 21 360 0.0 0.0 0.00 0.00 0.00 36 1006.4
20260502052426 21 360 0.0 0.0 0.00 0.00 0.00 35 1006.4
20260502051924 22 360 0.0 0.0 0.00 0.00 0.00 35 1006.4
20260502050910 22 360 0.0 0.0 0.00 0.00 0.00 36 1006.3
20260502050408 22 360 0.0 0.0 0.00 0.00 0.00 35 1006.2
20260502045858 22 360 0.0 0.0 0.00 0.00 0.00 34 1006.2
20260502045356 23 360 0.0 0.0 0.00 0.00 0.00 34 1006.2
20260502044854 23 360 0.0 0.0 0.00 0.00 0.00 33 1006.2
20260502044351 23 360 0.0 0.0 0.00 0.00 0.00 34 1006.2
20260502043848 23 360 0.0 0.0 0.00 0.00 0.00 34 1006.1
20260502043346 23 360 0.0 0.0 0.00 0.00 0.00 35 1006.1
20260502042843 23 360 0.0 0.0 0.00 0.00 0.00 35 1006.0
20260502042341 23 360 0.0 0.0 0.00 0.00 0.00 36 1006.0
20260502041838 23 360 0.0 0.0 0.00 0.00 0.00 35 1005.9
20260502041336 23 360 0.0 0.0 0.00 0.00 0.00 35 1005.8
20260502040833 23 360 0.0 0.0 0.00 0.00 0.00 35 1005.8
20260502040331 24 360 0.0 0.0 0.00 0.00 0.00 35 1005.7
20260502035828 24 360 0.0 0.0 0.00 0.00 0.00 34 1005.7
20260502035259 24 360 0.0 0.0 0.00 0.00 0.00 34 1005.6
20260502034755 24 360 0.0 0.0 0.00 0.00 0.00 33 1005.6
20260502034252 24 360 0.0 0.0 0.00 0.00 0.00 33 1005.6
20260502033743 25 360 0.0 0.0 0.00 0.00 0.00 33 1005.6
20260502033240 25 360 0.0 0.0 0.00 0.00 0.00 32 1005.5
20260502032737 25 360 0.0 0.0 0.00 0.00 0.00 31 1005.3
20260502032228 25 360 0.0 0.0 0.00 0.00 0.00 30 1005.3
20260502031725 25 360 0.0 0.0 0.00 0.00 0.00 29 1005.2
20260502031222 25 360 0.0 0.0 0.00 0.00 0.00 29 1005.2
20260502030719 26 360 0.0 0.0 0.00 0.00 0.00 28 1005.1
20260502030024 26 360 0.0 0.0 0.00 0.00 0.00 28 1004.9
20260502025521 26 360 0.0 0.0 0.00 0.00 0.00 28 1004.9
20260502024922 26 360 0.0 0.0 0.00 0.00 0.00 27 1004.9
20260502024420 27 360 0.0 0.0 0.00 0.00 0.00 26 1004.9
20260502023917 27 360 0.0 0.0 0.00 0.00 0.00 26 1004.8
20260502023414 27 360 0.0 48.3 0.00 0.00 0.00 25 1004.8
20260502022911 27 360 1.6 48.3 0.00 0.00 0.00 25 1004.7
20260502022409 28 360 0.0 0.0 0.00 0.00 0.00 24 1004.6
20260502021907 28 360 0.0 16.1 0.00 0.00 0.00 24 1004.5
20260502021404 28 360 0.0 32.2 0.00 0.00 0.00 24 1004.5
20260502020902 29 360 0.0 32.2 0.00 0.00 0.00 23 1004.4
20260502020352 29 360 0.0 32.2 0.00 0.00 0.00 23 1004.4
20260502015849 30 360 1.6 64.4 0.00 0.00 0.00 23 1004.5
20260502015347 30 360 1.6 80.5 0.00 0.00 0.00 22 1004.5
20260502014844 30 360 4.8 128.7 0.00 0.00 0.00 22 1004.5
20260502014341 30 360 3.2 80.5 0.00 0.00 0.00 21 1004.4
20260502013838 30 360 1.6 64.4 0.00 0.00 0.00 21 1004.4
20260502013335 30 360 3.2 64.4 0.00 0.00 0.00 20 1004.4
20260502012832 30 360 1.6 80.5 0.00 0.00 0.00 20 1004.4
20260502012330 30 360 1.6 96.6 0.00 0.00 0.00 20 1004.4
20260502011827 31 360 4.8 96.6 0.00 0.00 0.00 21 1004.4
20260502011324 31 360 3.2 96.6 0.00 0.00 0.00 21 1004.4
20260502010821 31 360 1.6 96.6 0.00 0.00 0.00 21 1004.4
20260502010312 31 360 3.2 64.4 0.00 0.00 0.00 22 1004.4
20260502005808 31 360 0.0 80.5 0.00 0.00 0.00 21 1004.4
20260502005301 31 360 6.4 96.6 0.00 0.00 0.00 22 1004.4
20260502004756 31 360 3.2 160.9 0.00 0.00 0.00 21 1004.4
20260502004254 31 360 3.2 160.9 0.00 0.00 0.00 22 1004.3
20260502003751 31 360 6.4 96.6 0.00 0.00 0.00 23 1004.3
20260502003248 31 360 1.6 64.4 0.00 0.00 0.00 24 1004.3
20260502002745 31 360 0.0 96.6 0.00 0.00 0.00 23 1004.3
20260502002240 31 360 1.6 96.6 0.00 0.00 0.00 22 1004.3
20260502001737 31 360 3.2 96.6 0.00 0.00 0.00 23 1004.4
20260502001234 31 360 8.0 96.6 0.00 0.00 0.00 23 1004.4
20260502000732 31 360 3.2 80.5 0.00 0.00 0.00 22 1004.4
20260502000229 31 360 6.4 160.9 0.00 0.00 0.00 22 1004.4
20260501235727 32 360 3.2 160.9 0.00 0.00 0.00 21 1004.4
20260501235224 32 360 1.6 80.5 0.00 0.00 0.00 23 1004.3
20260501234721 31 360 3.2 96.6 0.00 0.00 0.00 24 1004.4
20260501234218 32 360 1.6 144.8 0.00 0.00 0.00 23 1004.4
20260501233716 32 360 14.5 144.8 0.00 0.00 0.00 24 1004.5
20260501233213 31 360 3.2 128.7 0.00 0.00 0.00 24 1004.5
20260501232711 32 360 4.8 160.9 0.00 0.00 0.00 24 1004.6
20260501232208 32 360 6.4 160.9 0.00 0.00 0.00 23 1004.6
20260501231705 32 360 3.2 96.6 0.00 0.00 0.00 23 1004.5
20260501231203 32 360 3.2 96.6 0.00 0.00 0.00 23 1004.6
20260501230659 32 360 1.6 80.5 0.00 0.00 0.00 23 1004.6
20260501230157 31 360 1.6 96.6 0.00 0.00 0.00 23 1004.6
20260501225651 31 360 6.4 96.6 0.00 0.00 0.00 23 1004.7
20260501225149 31 360 4.8 96.6 0.00 0.00 0.00 22 1004.7
20260501224646 31 360 1.6 96.6 0.00 0.00 0.00 23 1004.9
20260501224143 31 360 1.6 128.7 0.00 0.00 0.00 23 1004.8
20260501223641 32 360 6.4 144.8 0.00 0.00 0.00 22 1004.7
20260501223138 32 360 3.2 144.8 0.00 0.00 0.00 22 1004.8
20260501222635 32 360 4.8 144.8 0.00 0.00 0.00 22 1004.9
20260501222132 32 360 4.8 64.4 0.00 0.00 0.00 22 1005.0
20260501221630 31 360 3.2 96.6 0.00 0.00 0.00 22 1005.0
20260501221127 31 360 1.6 128.7 0.00 0.00 0.00 23 1005.0
20260501220624 31 360 6.4 128.7 0.00 0.00 0.00 23 1005.2
20260501220121 31 360 3.2 144.8 0.00 0.00 0.00 22 1005.3
20260501215618 31 360 4.8 144.8 0.00 0.00 0.00 23 1005.2
20260501215116 31 360 1.6 80.5 0.00 0.00 0.00 24 1005.3
20260501214613 31 360 4.8 128.7 0.00 0.00 0.00 24 1005.4
20260501214108 31 360 4.8 193.1 0.00 0.00 0.00 23 1005.5
20260501213558 31 360 4.8 193.1 0.00 0.00 0.00 24 1005.5
20260501213055 31 360 3.2 128.7 0.00 0.00 0.00 23 1005.6
20260501212553 31 360 4.8 128.7 0.00 0.00 0.00 23 1005.7
20260501212043 31 360 4.8 96.6 0.00 0.00 0.00 24 1005.8
20260501211636 31 360 3.2 144.8 0.00 0.00 0.00 23 1006.0
20260501211540 31 360 1.6 96.6 0.00 0.00 0.00 24 1005.9
20260501211037 31 360 3.2 144.8 0.00 0.00 0.00 23 1006.0
20260501210535 31 360 6.4 144.8 0.00 0.00 0.00 23 1006.1
20260501210029 31 360 3.2 64.4 0.00 0.00 0.00 23 1006.1
20260501205526 31 360 0.0 64.4 0.00 0.00 0.00 23 1006.1
20260501205023 30 360 1.6 80.5 0.00 0.00 0.00 24 1006.2
20260501204521 30 360 4.8 80.5 0.00 0.00 0.00 25 1006.3
20260501204018 30 360 4.8 128.7 0.00 0.00 0.00 24 1006.4
20260501203516 30 360 1.6 128.7 0.00 0.00 0.00 23 1006.5
20260501203013 31 360 8.0 80.5 0.00 0.00 0.00 22 1006.5
20260501202511 30 360 1.6 80.5 0.00 0.00 0.00 23 1006.5
20260501202008 30 360 6.4 128.7 0.00 0.00 0.00 23 1006.6
20260501201505 31 360 6.4 128.7 0.00 0.00 0.00 23 1006.6
20260501201003 30 360 4.8 96.6 0.00 0.00 0.00 25 1006.6
20260501200500 30 360 6.4 96.6 0.00 0.00 0.00 25 1006.7
20260501195957 30 360 6.4 144.8 0.00 0.00 0.00 27 1006.6
20260501195454 30 360 4.8 128.7 0.00 0.00 0.00 26 1006.7
20260501194952 30 360 1.6 128.7 0.00 0.00 0.00 26 1006.7
20260501194449 29 360 1.6 96.6 0.00 0.00 0.00 27 1006.9
20260501193946 28 360 1.6 96.6 0.00 0.00 0.00 26 1006.9
20260501193444 29 360 3.2 144.8 0.00 0.00 0.00 26 1007.0
20260501192941 29 360 6.4 96.6 0.00 0.00 0.00 26 1007.1
20260501192438 29 360 1.6 96.6 0.00 0.00 0.00 26 1007.2
20260501191935 29 360 3.2 96.6 0.00 0.00 0.00 26 1007.3
20260501191430 29 360 3.2 48.3 0.00 0.00 0.00 27 1007.3
20260501190927 28 360 0.0 48.3 0.00 0.00 0.00 28 1007.4
20260501190423 28 360 0.0 80.5 0.00 0.00 0.00 29 1007.5
20260501185921 28 360 6.4 80.5 0.00 0.00 0.00 30 1007.5
20260501185417 28 360 1.6 80.5 0.00 0.00 0.00 29 1007.7
20260501184914 28 360 6.4 80.5 0.00 0.00 0.00 29 1007.8
20260501184412 27 360 4.8 96.6 0.00 0.00 0.00 30 1007.9
20260501183909 27 360 4.8 96.6 0.00 0.00 0.00 29 1007.9
20260501183406 27 360 0.0 64.4 0.00 0.00 0.00 28 1008.1
20260501182904 27 360 3.2 64.4 0.00 0.00 0.00 28 1008.1
20260501182401 10 360 167.4 32.2 1.85 4.62 0.00 28 1008.1
20260501181817 27 360 4.8 80.5 0.00 0.00 0.00 29 1008.2
20260501181315 27 360 0.0 128.7 0.00 0.00 0.00 31 1008.3
20260501180805 27 360 4.8 128.7 0.00 0.00 0.00 31 1008.3
20260501180303 26 360 0.0 80.5 0.00 0.00 0.00 32 1008.5
20260501175759 26 360 0.0 80.5 0.00 0.00 0.00 31 1008.5
20260501175249 26 360 4.8 80.5 0.00 0.00 0.00 32 1008.6
20260501174113 26 360 4.8 96.6 0.00 0.00 0.00 32 1008.7
20260501173610 26 360 4.8 96.6 0.00 0.00 0.00 32 1008.7
20260501173108 26 360 8.0 96.6 0.00 0.00 0.00 33 1008.7
20260501172606 25 360 9.7 128.7 0.00 0.00 0.00 34 1008.8
20260501172103 26 360 6.4 128.7 0.00 0.00 0.00 33 1008.8
20260501171600 25 360 6.4 144.8 0.00 0.00 0.00 33 1008.8
20260501171057 25 360 8.0 144.8 0.00 0.00 0.00 33 1008.8
20260501170555 25 360 1.6 128.7 0.00 0.00 0.00 35 1008.8
20260501170052 25 360 3.2 128.7 0.00 0.00 0.00 34 1008.8
20260501165549 25 360 3.2 96.6 0.00 0.00 0.00 35 1008.8
20260501165047 25 360 1.6 128.7 0.00 0.00 0.00 35 1008.8
20260501164222 25 360 3.2 128.7 0.00 0.00 0.00 36 1008.8
20260501163720 25 360 8.0 80.5 0.00 0.00 0.00 36 1008.8
20260501163217 24 360 1.6 96.6 0.00 0.00 0.00 37 1008.8
20260501162711 24 360 1.6 96.6 0.00 0.00 0.00 37 1008.8
20260501162201 24 360 1.6 80.5 0.00 0.00 0.00 37 1008.7
20260501161658 23 360 1.6 48.3 0.00 0.00 0.00 39 1008.7
20260501161156 23 360 1.6 80.5 0.00 0.00 0.00 39 1008.6
20260501160646 23 360 1.6 80.5 0.00 0.00 0.00 39 1008.7
20260501160144 23 360 0.0 80.5 0.00 0.00 0.00 39 1008.6
20260501155641 23 360 3.2 48.3 0.00 0.00 0.00 40 1008.6
20260501155138 22 360 1.6 64.4 0.00 0.00 0.00 40 1008.5
20260501154635 22 360 4.8 80.5 0.00 0.00 0.00 40 1008.5
20260501154133 22 360 4.8 80.5 0.00 0.00 0.00 40 1008.5
20260501153623 22 360 1.6 80.5 0.00 0.00 0.00 40 1008.4
20260501153120 22 360 3.2 80.5 0.00 0.00 0.00 41 1008.4
20260501152618 22 360 3.2 80.5 0.00 0.00 0.00 43 1008.3
20260501152114 21 360 6.4 80.5 0.00 0.00 0.00 43 1008.2
20260501151604 21 360 3.2 96.6 0.00 0.00 0.00 44 1008.2
20260501151101 21 360 3.2 96.6 0.00 0.00 0.00 44 1008.2
20260501150559 21 360 1.6 80.5 0.00 0.00 0.00 44 1008.1
20260501150056 21 360 3.2 80.5 0.00 0.00 0.00 44 1008.1
20260501145554 21 360 4.8 80.5 0.00 0.00 0.00 44 1008.1
20260501145051 21 360 3.2 80.5 0.00 0.00 0.00 45 1008.1
20260501144549 20 360 1.6 64.4 0.00 0.00 0.00 46 1008.0
20260501144046 20 360 4.8 64.4 0.00 0.00 0.00 47 1008.0
20260501143536 20 360 3.2 64.4 0.00 0.00 0.00 47 1007.9
20260501142433 20 360 1.6 80.5 0.00 0.00 0.00 48 1007.8
20260501141930 19 360 1.6 96.6 0.00 0.00 0.00 48 1007.8
20260501141428 19 360 3.2 96.6 0.00 0.00 0.00 49 1007.7
20260501140925 19 360 1.6 64.4 0.00 0.00 0.00 50 1007.8
20260501140422 18 360 3.2 96.6 0.00 0.00 0.00 51 1007.8
20260501135919 18 360 3.2 96.6 0.00 0.00 0.00 51 1007.6
20260501135416 18 360 1.6 48.3 0.00 0.00 0.00 51 1007.6
20260501134914 18 360 1.6 32.2 0.00 0.00 0.00 52 1007.6
20260501134411 18 360 1.6 32.2 0.00 0.00 0.00 52 1007.4
20260501133908 18 360 0.0 64.4 0.00 0.00 0.00 52 1007.3
20260501133206 18 360 1.6 80.5 0.00 0.00 0.00 52 1007.1